Flag for Germany Weather past 2 weeks in Greven, North Rhine-Westphalia, Germany

Now
73 °F

Clear.


Feels Like: 75 °F
Forecast: 55 / 68 °F
Wind: 15 mph from West

Location: Muenster / Osnabrueck

Current Time: Aug 31, 2015 at 10:28:48 PM

Latest Report: Aug 31, 2015 at 9:50 PM


Visibility: 10 mi

Pressure: 29.77 "Hg

Humidity: 74%

Dew point: 64 °F

Location of GrevenLocation

Historic Weather in Greven — Graph

°F

Greven temperature yesterday

Maximum temperature yesterday: 82 °F (at 3:20 PM)
Minimum temperature yesterday: 59 °F (at 1:50 AM)
Average temperature yesterday: 70 °F

Past Weeks' High & Low Weather Summary

 TemperatureHumidityPressure
High90 °F (Aug 31, 5:20 PM)100% (Aug 16, 9:20 PM)30.27 "Hg (Aug 16, 9:20 PM)
Low50 °F (Aug 19, 6:20 AM)34% (Aug 23, 2:20 PM)29.53 "Hg (Aug 24, 5:20 PM)
Average65 °F78%29.97 "Hg
* Reported Aug 16 9:20 PM — Aug 31 9:20 PM, Greven, Weather by CustomWeather, © 2015

Note: Actual official high and low records may vary slightly from our data, if they occured in-between our weather recording intervals... More about our weather records

Advertising

Greven weather history for previous 24 hours

 ConditionsComfort  
Time TempWeatherWind HumidityBarometerVisibility
9:20 PM
Mon, Aug 31
75 °FPassing clouds.7 mph74%29.77 "HgN/A
8:50 PM77 °FSunny.12 mph65%29.77 "Hg10 mi
8:20 PM79 °FSunny.9 mph58%29.74 "Hg10 mi
7:50 PM81 °FSunny.15 mph51%29.74 "Hg10 mi
7:20 PM84 °FSunny.6 mph43%29.71 "Hg10 mi
6:50 PM84 °FPassing clouds.6 mph40%29.74 "HgN/A
6:20 PM86 °FSunny.8 mph38%29.74 "Hg10 mi
5:50 PM86 °FPassing clouds.9 mph40%29.74 "HgN/A
5:20 PM90 °FPassing clouds.10 mph38%29.74 "HgN/A
4:50 PM88 °FPassing clouds.9 mph40%29.74 "HgN/A
4:20 PM88 °FPassing clouds.10 mph38%29.74 "HgN/A
3:50 PM88 °FPassing clouds.9 mph43%29.74 "HgN/A
3:20 PM88 °FScattered clouds.9 mph46%29.77 "HgN/A
2:50 PM86 °FPassing clouds.7 mph52%29.77 "HgN/A
2:20 PM86 °FPassing clouds.3 mph62%29.80 "HgN/A
1:50 PM84 °FScattered clouds.5 mph66%29.80 "HgN/A
1:20 PM82 °FPartly sunny.3 mph70%29.80 "HgN/A
12:50 PM82 °FPartly sunny.6 mph66%29.83 "HgN/A
12:20 PM81 °FSunny.7 mph70%29.83 "Hg10 mi
11:50 AM79 °FPartly sunny.7 mph70%29.83 "HgN/A
11:20 AM79 °FPartly sunny.6 mph70%29.86 "HgN/A
10:50 AM77 °FPartly sunny.5 mph69%29.86 "HgN/A
10:20 AM73 °FScattered clouds.7 mph83%29.89 "HgN/A
9:50 AM72 °FPassing clouds.9 mph83%29.89 "HgN/A
9:20 AM70 °FScattered clouds.5 mph88%29.89 "HgN/A
8:50 AM70 °FPartly sunny.8 mph83%29.92 "HgN/A
8:20 AM70 °FPartly sunny.3 mph83%29.89 "HgN/A
7:50 AM68 °FPartly sunny.5 mph88%29.89 "HgN/A
7:20 AM66 °FPassing clouds.5 mph94%29.92 "HgN/A
6:50 AM66 °FFog.2 mph94%29.92 "HgN/A
6:20 AM66 °FPassing clouds.3 mph94%29.92 "HgN/A
5:50 AM66 °FPartly cloudy.3 mph94%29.92 "HgN/A
5:20 AM66 °FPassing clouds.5 mph100%29.95 "HgN/A
4:50 AM68 °FPassing clouds.8 mph94%29.98 "HgN/A
4:20 AM66 °FClear.1 mph94%29.95 "Hg10 mi
3:50 AM66 °FClear.3 mph100%29.95 "Hg10 mi
3:20 AM66 °FPassing clouds.5 mph100%29.95 "HgN/A
2:50 AM66 °FPassing clouds.5 mph100%29.98 "HgN/A
2:20 AM68 °FPassing clouds.6 mph94%30.01 "HgN/A
1:50 AM68 °FStrong thunderstorms. Passing clouds.9 mph94%30.01 "Hg3 mi
1:20 AM70 °FThunderstorms. Fog.2 mph100%29.98 "Hg2 mi
12:50 AM70 °FFog.2 mph100%29.98 "Hg2 mi
12:20 AM68 °FFog.2 mph100%29.98 "Hg2 mi
11:20 PM
Sun, Aug 30
70 °FFog.2 mph94%29.98 "Hg3 mi
10:50 PM70 °FClear.1 mph100%29.98 "Hg4 mi
10:20 PM72 °FClear.3 mph94%29.98 "Hg4 mi
Weather by CustomWeather, © 2015

See weather overviewHow to use our weather pages